| time (UTC) | temp C | wind direction | speed KPH | gust KPH | rain 1hr cm | rain 24hr cm | rain mn cm | humidity % | barometer mb |
| 20260503214558 | 28 | 360 | 8.0 | 24.1 | 0.00 | 0.00 | 0.00 | 49 | 1010.7 |
| 20260503213100 | 28 | 360 | 8.0 | 22.5 | 0.00 | 0.00 | 0.00 | 47 | 1010.7 |
| 20260503211559 | 28 | 206 | 9.7 | 20.9 | 0.00 | 0.00 | 0.00 | 42 | 1010.7 |
| 20260503210058 | 29 | 204 | 8.0 | 19.3 | 0.00 | 0.00 | 0.00 | 38 | 1011.0 |
| 20260503204620 | 30 | 191 | 6.4 | 17.7 | 0.00 | 0.00 | 0.00 | 37 | 1011.0 |
| 20260503203102 | 31 | 190 | 6.4 | 19.3 | 0.00 | 0.00 | 0.00 | 36 | 1010.7 |
| 20260503201558 | 30 | 181 | 8.0 | 22.5 | 0.00 | 0.00 | 0.00 | 35 | 1010.7 |
| 20260503200057 | 30 | 194 | 6.4 | 17.7 | 0.00 | 0.00 | 0.00 | 38 | 1010.8 |
| 20260503194609 | 31 | 190 | 3.2 | 20.9 | 0.00 | 0.00 | 0.00 | 38 | 1011.0 |
| 20260503193118 | 30 | 189 | 6.4 | 24.1 | 0.00 | 0.00 | 0.00 | 38 | 1011.0 |
| 20260503191618 | 30 | 166 | 9.7 | 24.1 | 0.00 | 0.00 | 0.00 | 34 | 1011.0 |
| 20260503190057 | 30 | 186 | 4.8 | 17.7 | 0.00 | 0.00 | 0.00 | 34 | 1011.3 |
| 20260503184607 | 30 | 171 | 9.7 | 19.3 | 0.00 | 0.00 | 0.00 | 35 | 1011.6 |
| 20260503183057 | 30 | 180 | 3.2 | 12.9 | 0.00 | 0.00 | 0.00 | 34 | 1011.5 |
| 20260503181559 | 30 | 0 | 1.6 | 14.5 | 0.00 | 0.00 | 0.00 | 34 | 1011.7 |
| 20260503174604 | 29 | 178 | 1.6 | 8.0 | 0.00 | 0.00 | 0.00 | 38 | 1011.9 |
| 20260503173104 | 28 | 0 | 0.0 | 9.7 | 0.00 | 0.00 | 0.00 | 39 | 1011.5 |
| 20260503171557 | 28 | 184 | 0.0 | 9.7 | 0.00 | 0.00 | 0.00 | 41 | 1011.7 |
| 20260503170113 | 28 | 0 | 1.6 | 8.0 | 0.00 | 0.00 | 0.00 | 42 | 1011.7 |
| 20260503160109 | 26 | 217 | 1.6 | 6.4 | 0.00 | 0.00 | 0.00 | 47 | 1011.7 |
| 20260503100106 | 15 | 0 | 0.0 | 1.6 | 0.00 | 0.00 | 0.00 | 75 | 1009.4 |
| 20260503090109 | 15 | 0 | 0.0 | 3.2 | 0.00 | 0.00 | 0.00 | 70 | 1009.6 |
| 20260503081600 | 16 | 0 | 0.0 | 1.6 | 0.00 | 0.00 | 0.00 | 69 | 1010.3 |
| 20260503080106 | 16 | 0 | 0.0 | 1.6 | 0.00 | 0.00 | 0.00 | 69 | 1010.1 |
| 20260503071614 | 17 | 0 | 0.0 | 1.6 | 0.00 | 0.00 | 0.00 | 69 | 1010.3 |
| 20260503054612 | 18 | 0 | 0.0 | 1.6 | 0.00 | 0.00 | 0.00 | 58 | 1009.5 |
| 20260503053057 | 18 | 360 | 0.0 | 0.0 | 0.00 | 0.00 | 0.00 | 58 | 1009.3 |
| 20260503051558 | 19 | 0 | 0.0 | 1.6 | 0.00 | 0.00 | 0.00 | 57 | 1009.0 |
| 20260503050058 | 20 | 0 | 0.0 | 1.6 | 0.00 | 0.00 | 0.00 | 55 | 1008.8 |
| 20260503044558 | 20 | 0 | 0.0 | 3.2 | 0.00 | 0.00 | 0.00 | 58 | 1008.6 |
| 20260503043100 | 20 | 0 | 0.0 | 3.2 | 0.00 | 0.00 | 0.00 | 58 | 1008.6 |
| 20260503041559 | 20 | 0 | 0.0 | 0.0 | 0.00 | 0.00 | 0.00 | 56 | 1008.5 |
| 20260503040058 | 20 | 0 | 0.0 | 0.0 | 0.00 | 0.00 | 0.00 | 54 | 1008.5 |
| 20260503034559 | 21 | 0 | 0.0 | 1.6 | 0.00 | 0.00 | 0.00 | 53 | 1008.2 |
| 20260503033104 | 22 | 0 | 0.0 | 1.6 | 0.00 | 0.00 | 0.00 | 50 | 1008.0 |
| 20260503031557 | 22 | 0 | 0.0 | 4.8 | 0.00 | 0.00 | 0.00 | 47 | 1007.9 |
| 20260503024557 | 24 | 0 | 1.6 | 4.8 | 0.00 | 0.00 | 0.00 | 40 | 1007.7 |
| 20260503023100 | 25 | 222 | 1.6 | 4.8 | 0.00 | 0.00 | 0.00 | 37 | 1007.7 |
| 20260503021600 | 27 | 360 | 1.6 | 4.8 | 0.00 | 0.00 | 0.00 | 30 | 1007.7 |
| 20260503020059 | 28 | 360 | 1.6 | 6.4 | 0.00 | 0.00 | 0.00 | 23 | 1007.6 |
| 20260503014603 | 29 | 222 | 1.6 | 8.0 | 0.00 | 0.00 | 0.00 | 24 | 1007.4 |
| 20260503013057 | 30 | 222 | 3.2 | 8.0 | 0.00 | 0.00 | 0.00 | 24 | 1007.5 |
| 20260503011558 | 30 | 222 | 1.6 | 9.7 | 0.00 | 0.00 | 0.00 | 24 | 1007.4 |
| 20260503010056 | 31 | 0 | 3.2 | 9.7 | 0.00 | 0.00 | 0.00 | 23 | 1007.5 |
| 20260503004558 | 31 | 224 | 4.8 | 12.9 | 0.00 | 0.00 | 0.00 | 23 | 1007.7 |
| 20260503003100 | 31 | 225 | 4.8 | 12.9 | 0.00 | 0.00 | 0.00 | 23 | 1007.7 |
| 20260503001558 | 31 | 225 | 6.4 | 14.5 | 0.00 | 0.00 | 0.00 | 24 | 1007.8 |
| 20260503000104 | 32 | 225 | 8.0 | 14.5 | 0.00 | 0.00 | 0.00 | 23 | 1007.7 |
| 20260502234559 | 32 | 230 | 9.7 | 19.3 | 0.00 | 0.00 | 0.00 | 23 | 1007.8 |
| 20260502233058 | 32 | 218 | 8.0 | 17.7 | 0.00 | 0.00 | 0.00 | 22 | 1008.0 |
| 20260502231606 | 32 | 217 | 8.0 | 19.3 | 0.00 | 0.00 | 0.00 | 22 | 1007.9 |
| 20260502230059 | 33 | 217 | 9.7 | 19.3 | 0.00 | 0.00 | 0.00 | 22 | 1007.9 |
| 20260502224601 | 33 | 242 | 11.3 | 20.9 | 0.00 | 0.00 | 0.00 | 22 | 1007.9 |
| 20260502223057 | 33 | 229 | 6.4 | 17.7 | 0.00 | 0.00 | 0.00 | 21 | 1007.8 |
| 20260502221600 | 33 | 229 | 8.0 | 19.3 | 0.00 | 0.00 | 0.00 | 22 | 1008.1 |